EW4675 Weather Reports


time (UTC)temp
C
wind
direction
speed
KPH
gust
KPH
rain 1hr
cm
rain 24hr
cm
rain mn
cm
humidity
%
barometer
mb
20260504044004 10 266 4.8 16.1 0.00 0.00 0.00 48 1012.5
20260504043503 10 313 3.2 12.9 0.00 0.00 0.00 49 1012.6
20260504043004 10 278 3.2 14.5 0.00 0.00 0.00 48 1012.5
20260504042503 10 227 3.2 14.5 0.00 0.00 0.00 49 1012.4
20260504041503 10 248 4.8 14.5 0.00 0.00 0.00 49 1012.3
20260504041003 10 313 4.8 11.3 0.00 0.00 0.00 49 1012.2
20260504040504 10 275 4.8 12.9 0.00 0.00 0.00 49 1012.1
20260504040003 10 238 3.2 11.3 0.00 0.00 0.00 48 1012.2
20260504035506 10 243 3.2 11.3 0.00 0.00 0.00 47 1012.0
20260504034003 10 280 4.8 12.9 0.00 0.00 0.00 47 1012.1
20260504033506 10 296 4.8 11.3 0.00 0.00 0.00 47 1012.2
20260504033003 10 275 3.2 8.0 0.00 0.00 0.00 47 1012.1
20260504032003 10 251 3.2 14.5 0.00 0.00 0.00 46 1012.2
20260504031503 10 288 4.8 8.0 0.00 0.00 0.00 46 1012.3
20260504025504 10 292 3.2 11.3 0.00 0.00 0.00 46 1012.2
20260504025003 10 272 3.2 11.3 0.00 0.00 0.00 47 1012.1
20260504024503 10 302 0.0 4.8 0.00 0.00 0.00 47 1012.2
20260504024003 10 279 1.6 4.8 0.00 0.00 0.00 47 1012.3
20260504023503 10 294 1.6 12.9 0.00 0.00 0.00 46 1012.2
20260504022503 10 287 1.6 9.7 0.00 0.00 0.00 46 1012.3
20260504022004 10 273 1.6 4.8 0.00 0.00 0.00 45 1012.2
20260504021503 10 276 1.6 4.8 0.00 0.00 0.00 45 1012.2
20260504021003 10 271 1.6 4.8 0.00 0.00 0.00 45 1012.2
20260504020503 10 270 1.6 3.2 0.00 0.00 0.00 45 1012.2
20260504015505 10 286 0.0 0.0 0.00 0.00 0.00 45 1012.3
20260504015003 10 298 0.0 1.6 0.00 0.00 0.00 45 1012.2
20260504014503 10 310 1.6 4.8 0.00 0.00 0.00 45 1012.2
20260504013503 10 212 0.0 1.6 0.00 0.00 0.00 47 1012.1
20260504013003 9 210 0.0 0.0 0.00 0.00 0.00 47 1011.9
20260504012503 9 205 0.0 0.0 0.00 0.00 0.00 48 1012.1
20260504011504 9 194 0.0 0.0 0.00 0.00 0.00 49 1012.0
20260504011003 10 194 0.0 3.2 0.00 0.00 0.00 49 1011.9
20260504010503 10 194 1.6 4.8 0.00 0.00 0.00 48 1011.8
20260504010003 10 194 1.6 4.8 0.00 0.00 0.00 48 1011.8
20260504005503 10 197 1.6 4.8 0.00 0.00 0.00 49 1011.6
20260504005003 10 197 3.2 4.8 0.00 0.00 0.00 48 1011.6
20260504004502 10 261 3.2 4.8 0.00 0.00 0.00 48 1011.6
20260504004003 10 276 3.2 4.8 0.00 0.00 0.00 47 1011.5
20260504003003 11 277 0.0 3.2 0.00 0.00 0.00 46 1011.4
20260504002503 11 277 0.0 4.8 0.00 0.00 0.00 46 1011.4
20260504001503 11 328 0.0 0.0 0.00 0.00 0.00 44 1011.3
20260504000503 12 329 0.0 0.0 0.00 0.00 0.00 42 1011.2
20260504000003 12 329 0.0 1.6 0.00 0.00 0.00 42 1011.1
20260503235503 12 329 1.6 4.8 0.00 0.00 0.00 41 1011.1
20260503235003 12 326 3.2 4.8 0.00 0.00 0.00 39 1011.0
20260503234503 12 315 4.8 11.3 0.00 0.00 0.00 40 1011.0
20260503234003 12 330 4.8 4.8 0.00 0.00 0.00 40 1010.9
20260503233503 12 347 4.8 16.1 0.00 0.00 0.00 38 1010.8
20260503233003 12 358 4.8 9.7 0.00 0.00 0.00 39 1010.7
20260503232503 13 0 4.8 8.0 0.00 0.00 0.00 39 1010.7
20260503232003 13 340 4.8 8.0 0.00 0.00 0.00 39 1010.8
20260503231503 13 350 6.4 9.7 0.00 0.00 0.00 38 1010.7
20260503231003 13 329 6.4 12.9 0.00 0.00 0.00 38 1010.7
20260503230503 13 353 9.7 19.3 0.00 0.00 0.00 36 1010.6
20260503230003 13 351 8.0 14.5 0.00 0.00 0.00 36 1010.6
20260503225504 13 357 8.0 16.1 0.00 0.00 0.00 36 1010.6
20260503224504 13 352 8.0 14.5 0.00 0.00 0.00 37 1010.5
20260503223504 13 349 4.8 9.7 0.00 0.00 0.00 36 1010.6
20260503223003 13 332 8.0 19.3 0.00 0.00 0.00 35 1010.5
20260503222503 13 341 8.0 14.5 0.00 0.00 0.00 35 1010.4
20260503222003 13 324 4.8 14.5 0.00 0.00 0.00 35 1010.5
20260503221504 13 0 8.0 14.5 0.00 0.00 0.00 33 1010.5
20260503221003 13 340 9.7 14.5 0.00 0.00 0.00 34 1010.5
20260503220504 13 352 6.4 9.7 0.00 0.00 0.00 34 1010.4
20260503220004 13 349 4.8 12.9 0.00 0.00 0.00 35 1010.4
20260503215506 13 358 8.0 19.3 0.00 0.00 0.00 33 1010.5
20260503215003 13 341 8.0 16.1 0.00 0.00 0.00 34 1010.5
20260503214503 14 351 9.7 14.5 0.00 0.00 0.00 36 1010.3
20260503214003 13 351 8.0 19.3 0.00 0.00 0.00 34 1010.4
20260503213503 13 346 9.7 19.3 0.00 0.00 0.00 33 1010.2
20260503213003 13 353 9.7 16.1 0.00 0.00 0.00 33 1010.2
20260503212503 13 342 11.3 19.3 0.00 0.00 0.00 32 1010.2
20260503212003 13 349 9.7 19.3 0.00 0.00 0.00 34 1010.3
20260503211506 13 335 12.9 19.3 0.00 0.00 0.00 32 1010.2
20260503211003 13 356 9.7 19.3 0.00 0.00 0.00 32 1010.3
20260503210503 13 337 8.0 16.1 0.00 0.00 0.00 34 1010.3
20260503210003 13 341 11.3 22.5 0.00 0.00 0.00 32 1010.3
20260503205503 13 350 9.7 14.5 0.00 0.00 0.00 35 1010.3
20260503205003 13 345 12.9 20.9 0.00 0.00 0.00 32 1010.4
20260503204503 13 358 9.7 20.9 0.00 0.00 0.00 34 1010.5
20260503203504 13 340 12.9 20.9 0.00 0.00 0.00 35 1010.5
20260503203003 12 312 9.7 24.1 0.00 0.00 0.00 36 1010.5
20260503202504 13 312 12.9 24.1 0.00 0.00 0.00 33 1010.6
20260503202003 13 334 14.5 24.1 0.00 0.00 0.00 33 1010.5
20260503201503 13 336 9.7 19.3 0.00 0.00 0.00 36 1010.5
20260503201003 13 345 11.3 19.3 0.00 0.00 0.00 35 1010.6
20260503200503 12 345 9.7 16.1 0.00 0.00 0.00 38 1010.6
20260503200003 11 348 14.5 22.5 0.00 0.00 0.00 35 1010.7
20260503195503 12 352 9.7 19.3 0.00 0.00 0.00 35 1010.6
20260503194504 12 341 11.3 19.3 0.00 0.00 0.00 36 1010.7
20260503193503 12 340 11.3 19.3 0.00 0.00 0.00 36 1010.7
20260503193003 12 334 8.0 16.1 0.00 0.00 0.00 37 1010.7
20260503192003 12 347 8.0 16.1 0.00 0.00 0.00 40 1010.8
20260503191503 12 341 12.9 27.4 0.00 0.00 0.00 36 1010.8
20260503191003 12 333 9.7 32.2 0.00 0.00 0.00 37 1010.8
20260503190503 12 335 14.5 24.1 0.00 0.00 0.00 38 1010.9
20260503185504 12 339 8.0 19.3 0.00 0.00 0.00 37 1010.9
20260503185004 12 350 11.3 16.1 0.00 0.00 0.00 39 1011.1
20260503184503 11 319 11.3 19.3 0.00 0.00 0.00 37 1011.2
20260503184003 12 337 12.9 20.9 0.00 0.00 0.00 38 1011.2
20260503183503 11 349 8.0 40.2 0.00 0.00 0.00 41 1011.3
20260503183003 11 357 11.3 19.3 0.00 0.00 0.00 41 1011.2
20260503182505 11 327 9.7 22.5 0.00 0.00 0.00 38 1011.4
20260503182005 11 346 11.3 19.3 0.00 0.00 0.00 41 1011.5
20260503181504 11 359 11.3 20.9 0.00 0.00 0.00 42 1011.4
20260503181004 11 336 9.7 16.1 0.00 0.00 0.00 42 1011.4
20260503180503 11 350 9.7 19.3 0.00 0.00 0.00 41 1011.3
20260503180004 11 345 11.3 16.1 0.00 0.00 0.00 40 1011.4
20260503175503 11 351 6.4 14.5 0.00 0.00 0.00 43 1011.5
20260503175004 10 334 8.0 12.9 0.00 0.00 0.00 43 1011.5
20260503174503 10 0 8.0 12.9 0.00 0.00 0.00 43 1011.5
20260503174003 10 351 8.0 12.9 0.00 0.00 0.00 42 1011.6
20260503172003 10 330 14.5 22.5 0.00 0.00 0.00 41 1011.7
20260503171504 9 338 11.3 16.1 0.00 0.00 0.00 48 1011.9
20260503171003 9 3 9.7 14.5 0.00 0.00 0.00 43 1011.8
20260503170504 9 346 9.7 16.1 0.00 0.00 0.00 46 1011.8
20260503151003 7 359 6.4 12.9 0.00 0.00 0.00 54 1012.4
20260503150503 7 341 9.7 14.5 0.00 0.00 0.00 52 1012.4
20260503131003 6 354 9.7 27.4 0.00 0.00 0.00 62 1012.2
20260503130503 6 336 9.7 19.3 0.00 0.00 0.00 61 1012.3
20260503110504 4 7 4.8 8.0 0.00 0.00 0.00 69 1011.7
20260503090503 4 1 4.8 8.0 0.00 0.00 0.00 66 1010.8
20260503081503 5 5 8.0 14.5 0.00 0.10 0.00 62 1010.6
20260503081003 5 354 8.0 14.5 0.00 0.10 0.00 63 1010.7
20260503080505 5 355 9.7 12.9 0.00 0.13 0.00 62 1010.5
20260503072504 5 351 4.8 12.9 0.00 0.15 0.00 61 1010.5
20260503072003 5 358 4.8 8.0 0.00 0.18 0.00 62 1010.6
20260503070503 5 358 6.4 9.7 0.00 0.18 0.00 60 1010.3
20260503054504 6 0 3.2 4.8 0.00 0.18 0.00 58 1010.8
20260503054003 6 0 4.8 4.8 0.00 0.18 0.00 59 1010.8
20260503053504 6 0 4.8 8.0 0.00 0.18 0.00 58 1010.8
20260503053005 6 0 4.8 8.0 0.00 0.18 0.00 58 1010.9
20260503052503 6 357 4.8 4.8 0.00 0.18 0.00 56 1011.0
20260503052003 6 355 4.8 8.0 0.00 0.18 0.00 56 1010.9
20260503051503 6 355 4.8 4.8 0.00 0.18 0.00 57 1011.1
20260503051003 6 355 4.8 4.8 0.00 0.18 0.00 56 1011.1
20260503050004 7 355 4.8 8.0 0.00 0.18 0.00 56 1011.1
20260503045004 7 355 4.8 8.0 0.00 0.18 0.00 56 1011.2